Content
SEND FEEDBACK

Daily
Averages
Monthly
Summary
United States of America

NEW YORK - CENTRAL PARK, NEW YORK


Home > North America > United States > New York
Elevation: 14 feet     Latitude: 40 47N     Longitude: 073 58W

WEATHER
 
SELECT A DAY
Number of Records: 148,192;   Date Range: 11/1/95 - 8/28/14
 
SHARE

PRINT THIS DATA

[ ← Previous Day ]
WEATHER ALMANAC - JULY 13, 2013
[ Next Day → ]
[ °C ]   °F
Weather ElementAverageHighLow
Temperature73.4 °F80.1 °F (1:51 pm)66.9 °F (1:51 am)
Dewpoint69.9 °F72 °F (11:51 am)66 °F (12:29 am)
Humidity88.6 %97 % (1:51 am)74 % (1:51 pm)
Barometer30.23 in30.31 in (10:36 pm)30.12 in (12:51 am)
Wind Speed5.4 mph11.5 mph (1:51 pm)
Weather ElementAverage
Visibility5.4 mi
Wind DirectionNE (40.2 °)

Weather ElementTotal
Precipitation0.17 in
Cooling Degree Days8.5 (Base 65)
Growing Degree Days23.5 (Base 50)
Averaged from 47 records on July 13, 2013
WEATHER CONDITIONS BREAKOUT
WIND DIRECTION BREAKOUT
WEATHER BY HOUR - JULY 13, 2013
[ °C ]   °F
Local TimeTemperatureDewpointHumidityBarometerVisibilityWind DirectionWind SpeedGust SpeedPrecipitationEventsConditions
12:29 AM68.0 °F66.0 °F93 %30.14 in4.0 miVariable5.8 mph0.04 inRainLight Rain
12:51 AM68.0 °F66.0 °F93 %30.12 in4.0 miENE (60°)10.4 mph0.04 inOvercast
1:51 AM66.9 °F66.0 °F97 %30.13 in4.0 miVariable6.9 mph0.01 inRainLight Rain
2:25 AM66.9 °F66.0 °F97 %30.15 in2.0 miENE (60°)8.1 mph0.00 inOvercast
2:51 AM68.0 °F66.0 °F93 %30.12 in2.5 miEast (90°)9.2 mph0.00 inOvercast
3:51 AM68.0 °F66.9 °F96 %30.13 in2.0 miENE (60°)9.2 mphOvercast
4:11 AM68.0 °F66.9 °F96 %30.16 in2.5 miVariable5.8 mph0.00 inOvercast
4:43 AM69.1 °F66.9 °F93 %30.17 in3.0 miENE (70°)8.1 mph0.01 inRainLight Rain
4:51 AM69.1 °F66.9 °F93 %30.15 in2.5 miEast (80°)8.1 mph0.01 inOvercast
5:46 AM69.8 °F68.0 °F94 %30.18 in4.0 miEast (80°)6.9 mph0.01 inOvercast
5:51 AM69.1 °F68.0 °F96 %30.16 in4.0 miENE (70°)9.2 mph0.01 inOvercast
6:26 AM69.1 °F68.0 °F96 %30.20 in1.5 miEast (80°)8.1 mphOvercast
6:51 AM69.1 °F68.0 °F96 %30.18 in1.5 miENE (70°)9.2 mphOvercast
7:43 AM69.1 °F68.0 °F96 %30.22 in2.5 miVariable5.8 mphOvercast
7:51 AM70.0 °F68.0 °F93 %30.20 in3.0 miVariable5.8 mphOvercast
8:20 AM70.0 °F68.0 °F93 %30.24 in1.8 miEast (80°)5.8 mph0.00 inRainLight Rain
8:31 AM70.0 °F69.1 °F97 %30.24 in3.0 miVariable5.8 mph0.02 inRainLight Rain
8:51 AM71.1 °F69.1 °F93 %30.23 in2.5 miVariable5.8 mph0.02 inOvercast
9:51 AM72.0 °F70.0 °F93 %30.23 in2.5 miVariable4.6 mphOvercast
10:03 AM72.0 °F70.0 °F93 %30.26 in3.0 miENE (70°)5.8 mphOvercast
10:27 AM73.0 °F70.0 °F90 %30.26 in4.0 miENE (60°)6.9 mphOvercast
10:51 AM73.0 °F70.0 °F90 %30.24 in4.0 miENE (70°)8.1 mphOvercast
11:46 AM75.2 °F71.6 °F89 %30.26 in5.0 miENE (60°)5.8 mphHaze
11:51 AM77.0 °F72.0 °F84 %30.24 in6.0 miVariable4.6 mphHaze
12:51 PM79.0 °F72.0 °F79 %30.24 in6.0 miENE (70°)6.9 mphHaze
1:51 PM80.1 °F71.1 °F74 %30.24 in7.0 miENE (60°)11.5 mphMostly Cloudy
2:51 PM79.0 °F71.1 °F77 %30.24 in7.0 miENE (70°)8.1 mphMostly Cloudy
3:51 PM78.1 °F72.0 °F81 %30.23 in7.0 miVariable3.5 mphOvercast
4:51 PM77.0 °F71.1 °F82 %30.25 in7.0 miCalmMostly Cloudy
5:15 PM75.9 °F71.1 °F85 %30.27 in6.0 miENE (60°)4.6 mphHaze
5:25 PM75.9 °F71.1 °F85 %30.27 in7.0 miEast (80°)4.6 mphOvercast
5:41 PM77.0 °F71.1 °F82 %30.27 in6.0 miENE (70°)5.8 mphHaze
5:51 PM75.9 °F72.0 °F87 %30.25 in6.0 miENE (60°)8.1 mphOvercast
5:59 PM77.0 °F71.1 °F82 %30.28 in7.0 miVariable4.6 mphOvercast
6:32 PM77.0 °F72.0 °F84 %30.28 in8.0 miEast (80°)3.5 mphOvercast
6:51 PM77.0 °F72.0 °F84 %30.25 in8.0 miCalmOvercast
7:48 PM77.0 °F71.6 °F83 %30.29 in8.0 miVariable4.6 mphOvercast
7:51 PM77.0 °F71.1 °F82 %30.26 in8.0 miCalmOvercast
8:33 PM77.0 °F72.0 °F84 %30.29 in9.0 miCalmMostly Cloudy
8:51 PM77.0 °F72.0 °F84 %30.27 in9.0 miVariable4.6 mphMostly Cloudy
9:41 PM77.0 °F72.0 °F84 %30.30 in9.0 miCalmOvercast
9:51 PM75.9 °F72.0 °F87 %30.27 in9.0 miSSE (160°)6.9 mphMostly Cloudy
10:09 PM75.9 °F72.0 °F87 %30.30 in9.0 miCalmMostly Cloudy
10:36 PM75.9 °F72.0 °F87 %30.31 in9.0 miCalmScattered Clouds
10:51 PM75.9 °F72.0 °F87 %30.28 in9.0 miCalmScattered Clouds
11:21 PM75.9 °F72.0 °F87 %30.31 in9.0 miESE (120°)4.6 mphMostly Cloudy
11:51 PM75.9 °F72.0 °F87 %30.28 in8.0 miCalmMostly Cloudy
Hourly data recorded from KNYC, located miles away from New York - Central Park, New York







STORIES FROM OUR PARTNERS